Vorticity
nan nan nan nan nan nan nan nan nan nan nan nan nan nan nan nan nan nan nan nan nan nan nan nan nan nan nan nan nan nan nan nan nan nan nan nan nan nan nan nan nan nan nan
nan 8 7 6 5 5 5 5 5 4 5 5 5 5 5 4 5 6 6 5 6 6 5 6 6 7 7 5 4 4 3 3 3 4 6 4 4 5 3 4 6 8 nan
nan 7 7 6 5 5 5 5 5 5 5 4 5 5 5 5 5 4 5 6 6 6 5 5 6 6 6 4 5 5 5 2 2 4 1 1 7 7 4 4 6 6 nan
nan 6 8 6 5 5 5 6 5 5 5 4 4 5 5 6 5 5 5 6 7 6 5 4 4 5 4 4 6 5 5 3 2 2 2 7 8 5 4 4 4 4 nan
nan 9 9 6 5 5 5 5 6 6 5 4 5 5 4 5 6 6 5 6 6 6 6 4 3 4 5 5 5 5 4 3 2 4 6 5 6 7 5 4 4 3 nan
nan 7 9 7 6 5 5 5 5 5 6 6 5 5 5 5 4 5 6 6 6 6 5 4 4 4 5 5 5 5 3 2 4 6 9 8 7 9 4 3 4 5 nan
nan 7 7 7 8 6 5 5 5 5 5 5 6 5 5 5 5 6 5 5 5 7 6 4 4 3 4 4 3 4 3 5 6 10 11 7 7 8 4 4 5 5 nan
nan 6 8 6 5 6 7 6 5 5 4 5 6 6 6 5 5 5 6 6 6 5 5 5 4 3 3 2 3 3 3 5 6 9 9 9 9 8 5 3 4 4 nan
nan 6 6 7 6 5 4 5 7 7 6 5 4 5 5 6 5 5 6 5 5 5 5 5 4 3 3 3 3 4 5 6 8 9 9 10 12 5 4 4 4 4 nan
nan 6 7 7 4 5 7 7 6 4 6 7 5 4 5 4 5 6 6 5 5 5 5 5 4 4 3 2 3 5 7 8 6 8 10 8 12 7 5 4 4 4 nan
nan 5 5 7 5 5 7 8 7 7 6 4 5 6 4 5 7 6 6 7 5 5 6 5 4 4 4 5 7 6 10 10 8 8 10 12 11 7 4 5 5 5 nan
nan 7 7 5 5 6 6 6 6 5 4 6 8 5 4 7 8 8 8 7 6 6 7 6 7 6 6 7 7 9 10 7 7 8 11 17 11 6 5 5 5 5 nan
nan 6 7 7 7 4 5 6 6 7 7 8 7 5 7 7 6 6 8 9 10 7 6 8 8 8 7 6 6 7 5 7 8 7 11 15 11 7 5 5 5 5 nan
nan 11 9 7 7 5 6 7 7 7 7 7 8 7 6 6 7 8 7 8 6 9 8 7 8 8 7 6 5 5 6 6 6 8 12 12 9 7 7 6 5 5 nan
nan 18 14 10 7 7 6 7 7 7 7 7 8 7 6 7 7 7 7 8 7 7 7 7 7 8 8 8 7 7 6 6 6 6 11 14 10 7 7 7 6 6 nan
nan 11 16 14 11 11 12 9 5 6 7 7 8 8 6 6 7 7 8 8 7 7 7 8 7 7 8 9 8 8 8 6 7 6 6 15 14 8 8 7 8 7 nan
nan 8 10 12 14 13 12 9 13 15 11 9 8 9 7 5 6 6 7 8 8 8 7 7 7 7 8 8 8 8 8 8 7 7 6 7 14 14 10 8 9 8 nan
nan 9 10 9 9 10 11 12 11 12 12 12 13 11 14 17 10 4 5 7 9 9 9 8 8 7 7 7 8 8 8 9 8 8 7 6 6 11 15 13 8 7 nan
nan 7 9 9 9 11 12 9 7 9 10 9 10 9 9 12 18 18 12 8 7 7 8 8 8 9 8 7 8 7 9 8 10 10 8 7 6 5 8 14 15 13 nan
nan 7 8 8 9 12 13 9 7 6 5 7 8 6 10 8 9 16 16 13 12 11 7 7 9 8 8 9 9 8 9 9 9 8 9 9 9 7 6 8 11 16 nan
nan 6 7 7 9 11 11 11 6 4 6 7 5 4 9 10 9 12 12 9 14 15 13 11 9 6 8 10 8 11 8 8 9 7 10 9 7 10 9 8 5 6 nan
nan 5 7 7 9 11 12 12 9 6 7 6 5 5 5 7 8 11 10 10 9 9 12 16 13 10 11 7 4 7 10 9 9 12 8 9 8 9 10 8 7 6 nan
nan 6 6 6 7 9 11 13 14 12 8 3 5 7 5 6 7 8 9 9 8 11 9 8 7 15 15 12 11 4 6 8 7 9 9 11 12 10 10 11 11 10 nan
nan 9 6 6 6 6 8 9 10 11 9 8 7 7 6 5 7 7 8 9 11 7 6 9 9 10 12 13 16 14 5 7 4 7 8 6 9 10 11 12 12 12 nan
nan 8 7 8 8 8 8 8 7 9 9 8 6 7 9 8 7 7 8 8 10 8 6 5 9 10 11 11 8 13 19 13 9 9 6 5 6 6 8 9 10 10 nan
nan nan nan nan nan nan nan nan nan nan nan nan nan nan nan nan nan nan nan nan nan nan nan nan nan nan nan nan nan nan nan nan nan nan nan nan nan nan nan nan nan nan nan
CAPE
737 1194 1424 1469 1395 1396 1377 1462 1578 1760 2046 2120 2124 2232 2368 2461 2311 2151 2284 2130 1822 1573 1123 1171 1009 709 580 904 916 979 1149 916 768 815 893 765 734 511 154 192 331 171 348
670 1113 1297 1330 1375 1450 1466 1488 1579 1725 1951 2085 2112 2230 2276 2252 2214 2157 2106 2065 1881 1296 1022 639 415 202 91 328 571 755 850 735 557 754 884 492 463 558 537 434 532 552 606
796 1132 1155 1162 1304 1420 1549 1646 1673 1783 1942 2000 2101 2212 2219 2141 2031 1967 1923 1815 1718 1434 917 703 218 45 12 68 335 485 586 626 438 369 377 78 165 556 430 309 310 251 368
778 1029 1001 1052 1177 1329 1447 1624 1658 1730 1812 1927 1986 2054 2087 2084 1984 1752 1632 1572 1492 1362 721 593 431 87 72 240 231 233 251 288 226 9 0 33 67 128 149 305 296 175 152
521 906 990 879 974 1200 1327 1476 1544 1519 1542 1668 1789 1966 2027 2004 1859 1616 1460 1553 1426 1242 827 350 500 265 183 98 172 235 217 105 83 94 0 0 45 343 347 312 292 309 289
430 588 643 739 868 1101 1264 1343 1280 1130 1094 1253 1502 1749 1862 1821 1589 1511 1333 1496 1429 1229 729 543 537 231 75 27 7 0 0 0 0 0 0 0 0 125 233 359 286 436 380
328 368 581 710 844 1065 1277 1252 1077 911 928 1059 1212 1358 1525 1523 1427 1293 1253 1319 1317 1380 984 805 440 194 59 8 0 0 0 0 0 0 0 0 0 193 115 137 75 82 74
361 320 459 818 875 991 1059 929 834 792 794 870 948 1103 1245 1078 981 997 1104 1025 1031 1006 849 573 261 77 8 0 0 0 0 0 0 0 0 0 72 760 416 311 252 130 82
353 330 285 376 841 829 784 686 628 644 687 706 760 888 806 611 696 862 919 924 805 628 415 221 96 11 0 0 0 0 0 0 0 0 0 0 395 929 526 235 97 166 217
324 283 300 281 589 415 454 531 462 465 494 526 550 623 597 507 459 636 703 716 653 498 296 74 7 0 0 0 0 0 0 0 0 0 0 0 258 839 558 390 184 251 267
257 288 320 256 202 235 255 381 363 357 345 348 344 356 169 141 288 335 355 479 423 302 183 8 0 0 0 0 0 0 0 0 0 0 0 0 30 529 716 540 389 322 251
124 200 294 370 360 276 525 266 144 245 165 135 144 106 0 0 1 161 124 207 264 140 66 7 0 0 0 0 0 0 0 0 0 0 0 0 9 453 872 453 156 82 52
121 153 156 272 337 311 397 92 50 77 47 48 66 13 0 0 0 0 0 5 22 43 0 0 0 0 0 0 0 0 0 0 0 0 0 0 5 492 1282 858 375 226 119
220 151 144 95 201 215 149 84 54 41 14 21 16 5 2 0 0 0 0 0 0 0 0 0 0 0 0 0 0 0 0 0 0 0 0 0 0 570 1583 1571 931 589 375
0 57 192 92 118 55 103 38 42 69 49 27 8 6 0 0 0 0 0 0 0 0 0 0 0 0 0 0 0 0 0 0 0 0 0 0 0 66 1033 1794 1538 1182 912
0 0 0 105 187 108 127 69 12 4 59 6 23 0 14 0 0 0 0 0 0 0 0 0 0 0 0 0 0 0 0 0 0 0 0 0 0 0 96 938 1666 1691 1486
0 0 0 0 0 0 193 200 151 47 10 5 0 0 37 23 0 0 0 0 0 0 0 0 0 0 0 0 0 0 0 0 0 0 0 0 0 0 0 2 408 1105 1425
0 0 0 0 0 0 0 0 25 0 123 89 18 1 6 99 26 0 0 0 0 0 0 0 0 0 0 0 0 0 0 0 0 0 0 0 0 0 0 0 0 47 468
0 0 0 0 0 0 0 0 0 0 0 0 0 0 0 0 1 70 19 1 2 0 0 0 0 0 0 0 0 0 0 0 0 0 0 0 0 0 0 0 0 0 0
0 0 0 0 0 0 0 0 0 0 0 0 0 0 0 0 0 0 37 6 2 7 6 0 0 0 0 0 0 0 0 0 0 0 0 0 0 0 0 0 0 0 0
0 0 0 0 0 0 0 0 0 0 0 0 0 0 0 0 0 0 0 0 0 4 20 35 12 3 0 0 0 0 0 0 0 0 0 0 0 0 0 0 0 0 0
0 0 0 0 0 0 0 0 0 0 0 0 0 0 0 0 0 0 0 0 0 0 3 3 15 2 1 0 0 0 0 0 0 0 0 0 0 0 0 0 0 0 0
0 0 0 0 0 0 0 0 0 0 0 0 0 0 0 0 0 0 0 2 3 1 1 3 3 7 5 26 0 13 13 0 0 0 0 0 0 0 0 0 0 0 0
0 0 0 0 0 0 0 0 0 0 0 0 0 0 0 0 0 0 0 0 1 4 9 4 5 8 6 8 3 0 0 0 0 0 0 0 0 0 0 0 0 0 0
0 0 0 0 0 0 0 0 0 0 0 0 0 0 0 0 0 0 0 0 0 0 1 9 3 17 11 13 4 11 13 0 0 0 0 0 0 0 0 0 0 0 0
0 0 0 0 0 0 0 0 0 0 0 0 0 0 0 0 0 0 0 0 0 0 0 1 6 20 29 10 12 4 4 12 24 0 0 0 0 0 0 0 0 0 0